User: anonymous   Login
Location: Baix
(44.7118°N, 4.7648°E)
Time: 15:10:55
(UTC+00:00)
Language:

Courier 1B Rocket - Orbit

View from above orbital plane
View from above orbital plane
View from above satellite
View from above satellite

Ground track
Ground track

The orbit data is extracted from the following two-line orbital elements,

1    59U 60013B   20330.61354907 +.00000107 +00000-0 +21447-4 0  9997
2    59 028.2480 110.3543 0189142 198.8728 160.4728 13.52980275968413
Epoch (UTC): 25 November 2020 14:43:30
Eccentricity: 0.0189142
inclination: 28.2480°
perigee height: 920 km
apogee height: 1202 km
right ascension of ascending node: 110.3543°
argument of perigee: 198.8728°
revolutions per day: 13.52980275
mean anomaly at epoch: 160.4728°
orbit number at epoch: 96841

The dashed part of the orbit path shows where the satellite is in the earth's shadow,  

DLR